FW7576 Weather Reports


time (UTC)temp
F
wind
direction
speed
knots
gust
knots
rain 1hr
in
rain 24hr
in
rain mn
in
humidity
%
barometer
mb
20260506121538 42 259 0.9 3.5 0.00 0.00 0.00 58 1012.9
20260506120039 41 253 0.0 1.7 0.00 0.00 0.00 62 1013.0
20260506114536 39 280 0.0 0.9 0.00 0.00 0.00 64 1012.7
20260506113043 37 0 0.0 0.0 0.00 0.00 0.00 70 1012.4
20260506111539 35 0 0.0 0.0 0.00 0.00 0.00 73 1012.4
20260506110038 34 0 0.0 0.0 0.00 0.00 0.00 75 1012.1
20260506104536 34 0 0.0 0.0 0.00 0.00 0.00 75 1012.0
20260506103039 34 0 0.0 0.0 0.00 0.00 0.00 75 1011.7
20260506101535 34 0 0.0 0.0 0.00 0.00 0.00 75 1011.8
20260506100039 34 0 0.0 0.0 0.00 0.00 0.00 74 1011.8
20260506094540 35 0 0.0 0.0 0.00 0.00 0.00 72 1011.9
20260506093037 35 0 0.0 0.0 0.00 0.00 0.00 72 1012.0
20260506091536 35 0 0.0 0.0 0.00 0.00 0.00 73 1012.0
20260506090035 35 0 0.0 0.0 0.00 0.00 0.00 72 1012.0
20260506084539 36 0 0.0 0.0 0.00 0.00 0.00 71 1011.8
20260506083031 36 0 0.0 0.0 0.00 0.00 0.00 69 1011.7
20260506081540 36 0 0.0 0.9 0.00 0.00 0.00 69 1011.5
20260506073041 37 0 0.0 0.0 0.00 0.00 0.00 64 1011.2
20260506071542 39 0 0.0 0.0 0.00 0.00 0.00 63 1011.3
20260506061536 42 0 0.0 0.0 0.00 0.00 0.00 53 1011.5
20260506044538 44 0 0.0 0.9 0.00 0.00 0.00 46 1011.6
20260506043035 45 0 0.0 2.6 0.00 0.00 0.00 45 1011.4
20260506041538 46 0 0.0 2.6 0.00 0.00 0.00 43 1011.2
20260506040041 47 17 1.7 5.2 0.00 0.00 0.00 42 1011.0
20260506034544 47 36 3.5 9.6 0.00 0.00 0.00 41 1010.9
20260506033036 48 326 2.6 9.6 0.00 0.00 0.00 40 1011.0
20260506031535 48 37 3.5 7.0 0.00 0.00 0.00 40 1010.9
20260506030043 49 39 2.6 8.7 0.00 0.00 0.00 39 1010.8
20260506024557 49 360 3.5 7.8 0.00 0.00 0.00 39 1010.7
20260506023037 50 304 1.7 7.0 0.00 0.00 0.00 38 1010.5
20260506021536 50 340 1.7 4.3 0.00 0.00 0.00 37 1010.1
20260506020040 51 322 0.9 5.2 0.00 0.00 0.00 36 1009.9
20260506014535 51 303 1.7 6.1 0.00 0.00 0.00 35 1009.6
20260506013058 52 271 2.6 7.0 0.00 0.00 0.00 35 1009.3
20260506011541 52 345 2.6 11.3 0.00 0.00 0.00 34 1009.0
20260506010038 53 304 2.6 11.3 0.00 0.00 0.00 33 1008.9
20260506004536 53 29 2.6 7.0 0.00 0.00 0.00 33 1008.8
20260506003041 54 348 3.5 12.2 0.00 0.00 0.00 32 1008.6
20260506001544 54 347 2.6 13.9 0.00 0.00 0.00 32 1008.6
20260506000040 55 329 1.7 8.7 0.00 0.00 0.00 31 1008.4
20260505234539 55 245 4.3 9.6 0.00 0.00 0.00 31 1008.5
20260505233036 55 271 2.6 9.6 0.00 0.00 0.00 32 1008.6
20260505231538 55 225 3.5 9.6 0.00 0.00 0.00 31 1008.4
20260505230050 56 335 4.3 10.4 0.00 0.00 0.00 31 1008.4
20260505224540 56 332 3.5 7.8 0.00 0.00 0.00 31 1008.4
20260505223053 56 293 5.2 10.4 0.00 0.00 0.00 31 1008.2
20260505221539 56 294 5.2 14.8 0.00 0.00 0.00 30 1007.9
20260505220042 57 287 5.2 15.6 0.00 0.00 0.00 31 1008.0
20260505214536 56 319 5.2 13.9 0.00 0.00 0.00 32 1008.1
20260505213050 56 307 6.1 13.9 0.00 0.00 0.00 32 1008.2
20260505211535 56 203 2.6 9.6 0.00 0.00 0.00 33 1007.9
20260505210032 56 303 6.1 15.6 0.00 0.00 0.00 30 1008.1
20260505204540 56 294 4.3 13.9 0.00 0.00 0.00 32 1008.2
20260505203044 56 336 4.3 9.6 0.00 0.00 0.00 33 1008.4
20260505201537 56 265 5.2 15.6 0.00 0.00 0.00 33 1008.5
20260505200035 56 325 5.2 13.9 0.00 0.00 0.00 34 1008.5
20260505194540 55 279 4.3 11.3 0.00 0.00 0.00 34 1008.7
20260505193045 55 264 4.3 10.4 0.00 0.00 0.00 36 1008.6
20260505191544 55 298 7.0 13.0 0.00 0.00 0.00 36 1008.9
20260505190040 54 304 4.3 12.2 0.00 0.00 0.00 36 1008.7
20260505184540 54 272 3.5 11.3 0.00 0.00 0.00 37 1008.7
20260505183038 54 255 4.3 13.9 0.00 0.00 0.00 37 1008.6
20260505181539 54 297 5.2 13.9 0.00 0.00 0.00 34 1008.5
20260505180038 55 281 4.3 10.4 0.00 0.00 0.00 32 1008.2
20260505174535 54 243 6.1 13.0 0.00 0.00 0.00 37 1008.2
20260505173046 54 321 3.5 13.9 0.00 0.00 0.00 37 1008.5
20260505171539 54 229 7.8 13.0 0.00 0.00 0.00 37 1008.3
20260505170039 54 264 6.1 13.9 0.00 0.00 0.00 37 1008.0
20260505164549 53 283 6.1 16.5 0.00 0.00 0.00 36 1007.8
20260505163102 53 240 7.0 16.5 0.00 0.00 0.00 37 1008.4
20260505161544 53 62 3.5 14.8 0.00 0.00 0.00 41 1008.2
20260505153049 52 255 7.8 14.8 0.00 0.00 0.00 40 1008.0
20260505151543 52 243 6.1 13.0 0.00 0.00 0.00 41 1008.2
20260505124540 47 283 2.6 6.1 0.00 0.00 0.00 46 1008.7
20260505123037 47 288 3.5 7.0 0.00 0.00 0.00 48 1008.0